Location: NJAA Observatory
(40.6819°N, 74.8979°W)
Time: 08:06:09
(UTC-04:00)

Iridium 84 - Visible Passes

Search period start: 01 October 2016 00:00
Search period end: 11 October 2016 00:00
Orbit: 776 x 779 km, 86.4° (Epoch: 30 September)

Date Brightness Start Highest point End Pass type
(mag) Time Alt. Az. Time Alt. Az. Time Alt. Az.
02 Oct 7.3 06:11:30 10° SSE 06:16:15 37° E 06:21:01 10° NNE visible
02 Oct 9.2 20:06:09 10° WNW 20:06:49 10° WNW 20:07:30 10° W visible
03 Oct 8.4 05:39:13 10° SE 05:42:58 21° E 05:46:44 10° NE visible
03 Oct 8.6 19:30:01 10° NW 19:33:41 20° W 19:37:20 10° SW visible
04 Oct 9.1 05:08:32 10° E 05:09:49 11° ENE 05:11:05 10° ENE visible
04 Oct 7.5 18:55:42 10° NNW 19:00:25 35° W 19:05:07 10° SSW visible
05 Oct 6.5 06:11:12 10° SSE 06:16:16 54° E 06:21:20 10° NNE visible
06 Oct 7.7 05:38:28 10° SE 05:42:54 29° E 05:47:21 10° NNE visible
06 Oct 8.8 19:31:06 10° NW 19:33:34 13° WNW 19:36:01 10° WSW visible
07 Oct 8.6 05:06:33 10° ESE 05:09:41 16° ENE 05:12:48 10° NE visible
07 Oct 8.2 18:56:12 10° NNW 19:00:22 25° W 19:04:32 10° SW visible
08 Oct 5.7 06:11:07 10° S 06:16:18 79° E 06:21:32 10° N visible
09 Oct 6.9 05:38:00 10° SSE 05:42:52 42° E 05:47:46 10° NNE visible
10 Oct 7.9 05:05:32 10° SE 05:09:35 23° E 05:13:37 10° NNE visible
10 Oct 8.5 18:56:57 10° NW 19:00:17 17° W 19:03:36 10° WSW visible
